Weather in Ado-Tymovo

Russia / Sakhalin District     51°08′09″N   142°40′36″E
temp.,
°C
wind,
m/s
gust,
m/s
humid.,
%
clouds,
%
prec.,
mm/h
press.,
hPa
HPBL,
m
4 march, thu
thu423:00−16sw248714 0.0 102080
02:00−17ssw23900 0.0 101852
05:00−13ssw3139012 0.0 1015355
08:00−11ssw4148639 0.0 1013502
11:00−5sw6137629 0.0 10121081
14:00−2sw6117499 0.0 10101103
17:00−2wsw5107762 0.0 10091120
20:00−7w118996 0.0 101021
5 march, fri
fri523:00−6ne229798 1.0 101161
02:00−12ne3595100 2.4 1008197
05:00−13ne3695100 4.5 1007275
08:00−16ne4795100 1.2 1008387
11:00−17ne5795100 2.0 1010489
14:00−18ne4795100 1.5 1011517
17:00−19ne4795100 2.7 1012595
20:00−21nne3796100 0.4 1015478
6 march, sat
sat623:00−23n3695100 0.5 1018311
02:00−28nw129499 0.0 101919
05:00−30sw229879 0.0 101927
08:00−31sw22900 0.0 102120
11:00−22wnw514730 0.0 10201442
14:00−20w6118168 0.0 10191432
17:00−19wnw5117983 0.1 10181419
20:00−21w2890100 0.0 1019269
7 march, sun
sun723:00−20wsw3119898 0.1 1020513
02:00−22sw31095100 0.0 1018323
05:00−25sw229390 0.0 101826
08:00−24ssw2398100 0.0 1019102
11:00−19sw378977 0.0 1019546
14:00−14w58741 0.0 10181203
17:00−15wsw47801 0.0 1017863
20:00−20sw22910 0.0 101720
8 march, mon
mon823:00−22ssw23890 0.0 101823
02:00−23ssw22960 0.0 101626
05:00−23ssw239925 0.0 101633
08:00−23s239756 0.0 101749
11:00−17ssw369228 0.0 1016333
14:00−12w478350 0.0 1016772
17:00−12w478425 0.0 1016845
20:00−18ssw229476 0.0 101720